Federal Rideau — VRWG7 — position and weather

sailwx.info

Track history (hours):
 
Tides and Currents Weather Stations Pressure Air Temp Water Temp Dewpoint Dewpoint Depression Visibility Wind Speed Wind Dir Waves Ship Positions

Federal Rideau

Last reported at 2014-Jul-26 09:33 UTC. Time now 2014-Jul-29 06:49 UTC.
Position N 45°59' W 083°54'.

Length 200 m; draft 8.1 m.

Type: Cargo ship. MMSI: 477734000.

Date/timePositionNaut miles runAvg speedWind from/ knotsBaromVisibWave heightAir tempDewpointWater temp
2014-Jul-26 09:33N 45°59' W 083°54'3 3.1
2014-Jul-26 08:33N 46°02' W 083°52'0 0.0
2014-Jul-26 07:33N 46°02' W 083°52'1 1.0
2014-Jul-26 06:26N 46°03' W 083°53'8 8.6
2014-Jul-26 05:33N 46°08' W 084°01'9 9.0
2014-Jul-26 04:33N 46°14' W 084°10'7 6.8
2014-Jul-26 03:33N 46°20' W 084°13'15 3.7
2014-Jul-25 23:28N 46°27' W 084°33'7 0.6
2014-Jul-25 12:33N 46°33' W 084°38'1211.8
2014-Jul-25 11:33N 46°41' W 084°50'  
2014-Jul-17 03:25N 46°30' W 084°37'37 5.4
2014-Jul-16 20:33N 46°04' W 083°60'8 7.6
2014-Jul-16 19:33N 45°58' W 083°53'1212.5
2014-Jul-16 18:33N 45°51' W 084°08'1414.3
2014-Jul-16 17:33N 45°51' W 084°29'1414.0
2014-Jul-16 16:33N 45°49' W 084°49'1413.7
2014-Jul-16 15:34N 45°49' W 085°08'1312.6
2014-Jul-16 14:33N 45°38' W 085°17'1413.7
2014-Jul-16 13:33N 45°27' W 085°29'1413.6
2014-Jul-16 12:33N 45°16' W 085°41'1413.6
2014-Jul-16 11:34N 45°05' W 085°52'1313.2
2014-Jul-16 10:34N 44°57' W 086°06'  
Track history (hours):
 
Tides and Currents Weather Stations Pressure Air Temp Water Temp Dewpoint Dewpoint Depression Visibility Wind Speed Wind Dir Waves Ship Positions

Federal Rideau

Last reported at 2014-Jul-26 09:33 UTC. Time now 2014-Jul-29 06:49 UTC.
Position N 45°59' W 083°54'.

Length 200 m; draft 8.1 m.

Type: Cargo ship. MMSI: 477734000.

Date/timePositionNaut miles runAvg speedWind from/ knotsBaromVisibWave heightAir tempDewpointWater temp
2014-Jul-26 09:33N 45°59' W 083°54'3 3.1
2014-Jul-26 08:33N 46°02' W 083°52'0 0.0
2014-Jul-26 07:33N 46°02' W 083°52'1 1.0
2014-Jul-26 06:26N 46°03' W 083°53'8 8.6
2014-Jul-26 05:33N 46°08' W 084°01'9 9.0
2014-Jul-26 04:33N 46°14' W 084°10'7 6.8
2014-Jul-26 03:33N 46°20' W 084°13'15 3.7
2014-Jul-25 23:28N 46°27' W 084°33'7 0.6
2014-Jul-25 12:33N 46°33' W 084°38'1211.8
2014-Jul-25 11:33N 46°41' W 084°50'  
2014-Jul-17 03:25N 46°30' W 084°37'37 5.4
2014-Jul-16 20:33N 46°04' W 083°60'8 7.6
2014-Jul-16 19:33N 45°58' W 083°53'1212.5
2014-Jul-16 18:33N 45°51' W 084°08'1414.3
2014-Jul-16 17:33N 45°51' W 084°29'1414.0
2014-Jul-16 16:33N 45°49' W 084°49'1413.7
2014-Jul-16 15:34N 45°49' W 085°08'1312.6
2014-Jul-16 14:33N 45°38' W 085°17'1413.7
2014-Jul-16 13:33N 45°27' W 085°29'1413.6
2014-Jul-16 12:33N 45°16' W 085°41'1413.6
2014-Jul-16 11:34N 45°05' W 085°52'1313.2
2014-Jul-16 10:34N 44°57' W 086°06'  

Dump ship's entire track history